Weather History for KGEV - December, 2012

Change the Weather History Date:

Monday, December 3, 2012

  Actual Average Record
Temperature  
Mean Temperature 56 °F -  
Max Temperature 63 °F 48 °F 66 °F (1991)
Min Temperature 48 °F 26 °F 5 °F (1979)
Degree Days  
Heating Degree Days 10    
Growing Degree Days 6 (Base 50)    
Moisture  
Dew Point 44 °F    
Average Humidity 65    
Maximum Humidity 76    
Minimum Humidity 50    
Precipitation  
Precipitation 0.00 in - - ()
Sea Level Pressure  
Sea Level Pressure 30.29 in    
Wind  
Wind Speed 4 mph (West)    
Max Wind Speed 14 mph    
Max Gust Speed 22 mph    
Visibility 10 miles    
Events      
Averages and records for this station are not official NWS values.
T = Trace of Precipitation, MM = Missing Value Source: NWS Daily Summary

Daily Weather History Graph

Daily Weather History Graph

Search for Another Location

Airport or City:

Trip Planner

Search our weather history database for the weather conditions in past years. The results will help you decide how hot, cold, wet, or windy it might be!

Date:

Astronomy

Dec. 03, 2012 Rise Set
Actual Time 7:21 AM EST 5:10 PM EST
Civil Twilight 6:52 AM EST 5:38 PM EST
Nautical Twilight 6:20 AM EST 6:10 PM EST
Astronomical Twilight 5:49 AM EST 6:41 PM EST
Moon 9:51 PM EST (12/3) 10:47 AM EST (12/3)
Length of Visible Light 10h 45m
Length of Day
9h 49m
Waning Gibbous, 78% of the Moon is Illuminated
Dec 3
Waning Gibbous
Dec 6
Last Quarter
Dec 13
New
Dec 20
First Quarter
Dec 28
Full

Hourly Weather History & Observations

Time (EST) Temp. Dew Point Humidity Pressure Visibility Wind Dir Wind Speed Gust Speed Precip Events Conditions
12:15 AM 50.0 °F 41.0 °F 71% 30.28 in 10.0 mi Calm Calm - N/A   Clear
12:35 AM 51.8 °F 41.0 °F 67% 30.28 in 10.0 mi Calm Calm - N/A   Clear
12:55 AM 50.0 °F 41.0 °F 71% 30.28 in 10.0 mi Calm Calm - N/A   Clear
1:15 AM 50.0 °F 41.0 °F 71% 30.28 in 10.0 mi SW 3.5 mph - N/A   Clear
1:35 AM 48.2 °F 41.0 °F 76% 30.28 in 10.0 mi Calm Calm - N/A   Clear
1:55 AM 50.0 °F 42.8 °F 76% 30.28 in 10.0 mi WNW 6.9 mph - N/A   Clear
2:15 AM 53.6 °F 42.8 °F 67% 30.29 in 10.0 mi NW 4.6 mph - N/A   Scattered Clouds
2:35 AM 53.6 °F 42.8 °F 67% 30.30 in 10.0 mi Calm Calm - N/A   Mostly Cloudy
2:55 AM 51.8 °F 42.8 °F 71% 30.29 in 10.0 mi NW 3.5 mph - N/A   Scattered Clouds
3:15 AM 53.6 °F 42.8 °F 67% 30.29 in 10.0 mi NW 9.2 mph - N/A   Mostly Cloudy
3:35 AM 53.6 °F 42.8 °F 67% 30.29 in 10.0 mi WNW 12.7 mph 17.3 mph N/A   Mostly Cloudy
3:55 AM 53.6 °F 42.8 °F 67% 30.29 in 10.0 mi WNW 9.2 mph 19.6 mph N/A   Scattered Clouds
4:15 AM 53.6 °F 42.8 °F 67% 30.29 in 10.0 mi WNW 8.1 mph - N/A   Scattered Clouds
4:35 AM 53.6 °F 42.8 °F 67% 30.29 in 10.0 mi West 9.2 mph - N/A   Scattered Clouds
4:55 AM 51.8 °F 42.8 °F 71% 30.28 in 10.0 mi WNW 6.9 mph - N/A   Mostly Cloudy
5:15 AM 53.6 °F 42.8 °F 67% 30.29 in 10.0 mi West 8.1 mph - N/A   Scattered Clouds
5:35 AM 51.8 °F 42.8 °F 71% 30.29 in 10.0 mi West 11.5 mph - N/A   Scattered Clouds
5:55 AM 53.6 °F 42.8 °F 67% 30.29 in 10.0 mi WNW 9.2 mph 18.4 mph N/A   Overcast
6:15 AM 53.6 °F 42.8 °F 67% 30.29 in 10.0 mi WNW 11.5 mph 17.3 mph N/A   Overcast
6:35 AM 53.6 °F 42.8 °F 67% 30.29 in 10.0 mi NW 13.8 mph 21.9 mph N/A   Overcast
6:55 AM 53.6 °F 42.8 °F 67% 30.30 in 10.0 mi WNW 13.8 mph 19.6 mph N/A   Overcast
7:15 AM 53.6 °F 42.8 °F 67% 30.31 in 10.0 mi WNW 9.2 mph 21.9 mph N/A   Overcast
7:35 AM 53.6 °F 42.8 °F 67% 30.31 in 10.0 mi WNW 12.7 mph 18.4 mph N/A   Mostly Cloudy
7:55 AM 51.8 °F 42.8 °F 71% 30.31 in 10.0 mi West 9.2 mph - N/A   Mostly Cloudy
8:15 AM 53.6 °F 42.8 °F 67% 30.31 in 10.0 mi West 12.7 mph - N/A   Mostly Cloudy
8:35 AM 53.6 °F 42.8 °F 67% 30.31 in 10.0 mi West 5.8 mph 16.1 mph N/A   Scattered Clouds
8:55 AM 53.6 °F 42.8 °F 67% 30.31 in 10.0 mi West 6.9 mph - N/A   Clear
9:15 AM 53.6 °F 42.8 °F 67% 30.33 in 10.0 mi WNW 9.2 mph - N/A   Clear
9:35 AM 55.4 °F 42.8 °F 63% 30.33 in 10.0 mi Calm Calm - N/A   Clear
9:55 AM 55.4 °F 42.8 °F 63% 30.33 in 10.0 mi Calm Calm - N/A   Clear
10:15 AM 55.4 °F 44.6 °F 67% 30.34 in 10.0 mi Calm Calm - N/A   Scattered Clouds
10:35 AM 57.2 °F 44.6 °F 63% 30.33 in 10.0 mi Calm Calm - N/A   Mostly Cloudy
11:15 AM 61.3 °F 44.6 °F 54% 30.33 in 10.0 mi West 9.2 mph - N/A   Clear
11:35 AM 61.3 °F 44.6 °F 54% 30.32 in 10.0 mi West 9.2 mph - N/A   Clear
11:55 AM 62.6 °F 45.0 °F 52% 30.31 in 10.0 mi West 8.1 mph - N/A   Clear
12:35 PM 63.1 °F 44.2 °F 50% 30.29 in 10.0 mi West 5.8 mph - N/A   Scattered Clouds
12:55 PM 62.6 °F 44.4 °F 51% 30.29 in 10.0 mi West 6.9 mph - N/A   Mostly Cloudy
1:15 PM 62.2 °F 44.6 °F 52% 30.29 in 10.0 mi Calm Calm - N/A   Mostly Cloudy
1:35 PM 63.0 °F 44.6 °F 51% 30.28 in 10.0 mi Calm Calm - N/A   Mostly Cloudy
1:55 PM 62.4 °F 44.6 °F 52% 30.28 in 10.0 mi Calm Calm - N/A   Mostly Cloudy
2:15 PM 62.6 °F 45.0 °F 52% 30.27 in 10.0 mi Calm Calm - N/A   Overcast
2:55 PM 61.7 °F 45.7 °F 56% 30.27 in 10.0 mi ESE 3.5 mph - N/A   Overcast
3:15 PM 61.9 °F 46.0 °F 56% 30.27 in 10.0 mi ESE 3.5 mph - N/A   Overcast
3:35 PM 62.8 °F 46.0 °F 54% 30.26 in 10.0 mi SE 4.6 mph - N/A   Overcast
3:55 PM 63.0 °F 45.7 °F 53% 30.26 in 10.0 mi SSE 4.6 mph - N/A   Overcast
4:15 PM 61.3 °F 45.7 °F 56% 30.27 in 10.0 mi Calm Calm - N/A   Mostly Cloudy
4:35 PM 60.3 °F 45.5 °F 58% 30.27 in 10.0 mi SE 3.5 mph - N/A   Scattered Clouds
4:55 PM 59.5 °F 45.1 °F 59% 30.27 in 10.0 mi Calm Calm - N/A   Clear
5:15 PM 58.6 °F 44.8 °F 60% 30.28 in 10.0 mi Calm Calm - N/A   Clear
5:35 PM 57.2 °F 44.8 °F 63% 30.28 in 10.0 mi Calm Calm - N/A   Clear
5:55 PM 57.2 °F 44.8 °F 63% 30.28 in 10.0 mi Calm Calm - N/A   Scattered Clouds
6:15 PM 56.7 °F 44.6 °F 64% 30.29 in 10.0 mi Calm Calm - N/A   Scattered Clouds
6:35 PM 56.1 °F 44.6 °F 65% 30.29 in 10.0 mi Calm Calm - N/A   Scattered Clouds
6:55 PM 55.8 °F 44.6 °F 66% 30.29 in 10.0 mi Calm Calm - N/A   Scattered Clouds
7:15 PM 55.2 °F 44.1 °F 66% 30.30 in 10.0 mi Calm Calm - N/A   Clear
7:35 PM 54.9 °F 44.1 °F 67% 30.29 in 10.0 mi Calm Calm - N/A   Clear
7:55 PM 55.0 °F 43.9 °F 66% 30.30 in 10.0 mi Calm Calm - N/A   Clear
8:15 PM 54.9 °F 43.7 °F 66% 30.30 in 10.0 mi Calm Calm - N/A   Clear
8:55 PM 54.5 °F 43.7 °F 67% 30.30 in 10.0 mi Calm Calm - N/A   Clear
9:15 PM 53.8 °F 43.7 °F 69% 30.30 in 10.0 mi Calm Calm - N/A   Clear
9:35 PM 53.1 °F 43.7 °F 71% 30.30 in 10.0 mi Calm Calm - N/A   Clear
9:55 PM 52.9 °F 43.7 °F 71% 30.30 in 10.0 mi Calm Calm - N/A   Clear
10:15 PM 52.7 °F 43.7 °F 71% 30.29 in 10.0 mi Calm Calm - N/A   Clear
10:35 PM 52.5 °F 43.7 °F 72% 30.29 in 10.0 mi Calm Calm - N/A   Clear
10:55 PM 52.2 °F 43.7 °F 73% 30.29 in 10.0 mi Calm Calm - N/A   Clear
11:15 PM 52.9 °F 43.7 °F 71% 30.29 in 10.0 mi Calm Calm - N/A   Clear
11:35 PM 52.2 °F 43.7 °F 73% 30.29 in 10.0 mi SSE 3.5 mph - N/A   Clear
11:55 PM 51.4 °F 43.3 °F 74% 30.30 in 10.0 mi Calm Calm - N/A   Clear